| time (UTC) | temp C | wind direction | speed KPH | gust KPH | rain 1hr cm | rain 24hr cm | rain mn cm | humidity % | barometer mb |
| 20260504081823 | 19 | 21 | 0.0 | 6.4 | 0.00 | 0.00 | 0.00 | 81 | 1012.0 |
| 20260504081333 | 19 | 21 | 1.6 | 6.4 | 0.00 | 0.00 | 0.00 | 81 | 1012.0 |
| 20260504080828 | 19 | 21 | 1.6 | 6.4 | 0.00 | 0.00 | 0.00 | 81 | 1012.1 |
| 20260504080323 | 19 | 21 | 1.6 | 4.8 | 0.00 | 0.00 | 0.00 | 81 | 1012.1 |
| 20260504070334 | 18 | 21 | 1.6 | 4.8 | 0.00 | 0.00 | 0.00 | 82 | 1012.2 |
| 20260504050338 | 17 | 21 | 0.0 | 3.2 | 0.00 | 0.00 | 0.00 | 83 | 1011.6 |
| 20260504045829 | 17 | 21 | 0.0 | 3.2 | 0.00 | 0.00 | 0.00 | 83 | 1011.7 |
| 20260504045326 | 17 | 21 | 0.0 | 3.2 | 0.00 | 0.00 | 0.00 | 83 | 1011.7 |
| 20260504044837 | 17 | 21 | 0.0 | 3.2 | 0.00 | 0.00 | 0.00 | 83 | 1011.7 |
| 20260504044327 | 17 | 21 | 0.0 | 4.8 | 0.00 | 0.00 | 0.00 | 83 | 1011.7 |
| 20260504043841 | 17 | 21 | 1.6 | 4.8 | 0.00 | 0.00 | 0.00 | 83 | 1011.7 |
| 20260504043331 | 17 | 21 | 0.0 | 3.2 | 0.00 | 0.00 | 0.00 | 83 | 1011.7 |
| 20260504042822 | 17 | 21 | 0.0 | 3.2 | 0.00 | 0.00 | 0.00 | 83 | 1011.7 |
| 20260504042332 | 17 | 21 | 1.6 | 4.8 | 0.00 | 0.00 | 0.00 | 83 | 1011.8 |
| 20260504041846 | 17 | 21 | 1.6 | 3.2 | 0.00 | 0.00 | 0.00 | 83 | 1011.8 |
| 20260504041341 | 17 | 21 | 0.0 | 0.0 | 0.00 | 0.00 | 0.00 | 83 | 1011.8 |
| 20260504040834 | 17 | 21 | 0.0 | 0.0 | 0.00 | 0.00 | 0.00 | 83 | 1011.8 |
| 20260504040338 | 17 | 21 | 0.0 | 1.6 | 0.00 | 0.00 | 0.00 | 83 | 1012.0 |
| 20260504035828 | 17 | 21 | 0.0 | 1.6 | 0.00 | 0.00 | 0.00 | 83 | 1012.0 |
| 20260504035342 | 17 | 21 | 0.0 | 1.6 | 0.00 | 0.00 | 0.00 | 83 | 1012.1 |
| 20260504034831 | 17 | 21 | 0.0 | 1.6 | 0.00 | 0.00 | 0.00 | 83 | 1012.2 |
| 20260504034325 | 17 | 21 | 0.0 | 3.2 | 0.00 | 0.00 | 0.00 | 83 | 1012.2 |
| 20260504033838 | 16 | 21 | 0.0 | 3.2 | 0.00 | 0.00 | 0.00 | 83 | 1012.3 |
| 20260504033333 | 16 | 21 | 0.0 | 4.8 | 0.00 | 0.00 | 0.00 | 83 | 1012.4 |
| 20260504032827 | 16 | 21 | 1.6 | 4.8 | 0.00 | 0.00 | 0.00 | 83 | 1012.5 |
| 20260504032340 | 16 | 21 | 0.0 | 3.2 | 0.00 | 0.00 | 0.00 | 83 | 1012.4 |
| 20260504031836 | 16 | 21 | 0.0 | 0.0 | 0.00 | 0.00 | 0.00 | 83 | 1012.4 |
| 20260504031327 | 16 | 21 | 0.0 | 0.0 | 0.00 | 0.00 | 0.00 | 83 | 1012.4 |
| 20260504030838 | 16 | 21 | 0.0 | 0.0 | 0.00 | 0.00 | 0.00 | 83 | 1012.4 |
| 20260504030331 | 16 | 21 | 0.0 | 0.0 | 0.00 | 0.00 | 0.00 | 83 | 1012.5 |
| 20260504025840 | 16 | 21 | 0.0 | 0.0 | 0.00 | 0.00 | 0.00 | 83 | 1012.5 |
| 20260504025335 | 16 | 21 | 0.0 | 0.0 | 0.00 | 0.00 | 0.00 | 83 | 1012.6 |
| 20260504024828 | 16 | 21 | 0.0 | 0.0 | 0.00 | 0.00 | 0.00 | 82 | 1012.6 |
| 20260504024338 | 16 | 21 | 0.0 | 0.0 | 0.00 | 0.00 | 0.00 | 83 | 1012.7 |
| 20260504023829 | 16 | 21 | 0.0 | 0.0 | 0.00 | 0.00 | 0.00 | 82 | 1012.6 |
| 20260504023339 | 16 | 21 | 0.0 | 0.0 | 0.00 | 0.00 | 0.00 | 82 | 1012.6 |
| 20260504022829 | 16 | 21 | 0.0 | 0.0 | 0.00 | 0.00 | 0.00 | 82 | 1012.7 |
| 20260504022323 | 16 | 21 | 0.0 | 0.0 | 0.00 | 0.00 | 0.00 | 82 | 1012.7 |
| 20260504021833 | 16 | 21 | 0.0 | 0.0 | 0.00 | 0.00 | 0.00 | 82 | 1012.7 |
| 20260504021331 | 17 | 21 | 0.0 | 0.0 | 0.00 | 0.00 | 0.00 | 82 | 1012.7 |
| 20260504020841 | 17 | 21 | 0.0 | 0.0 | 0.00 | 0.00 | 0.00 | 82 | 1012.7 |
| 20260504020327 | 17 | 21 | 0.0 | 0.0 | 0.00 | 0.00 | 0.00 | 82 | 1012.6 |
| 20260504015840 | 17 | 21 | 0.0 | 0.0 | 0.00 | 0.00 | 0.00 | 82 | 1012.6 |
| 20260504015334 | 17 | 21 | 0.0 | 0.0 | 0.00 | 0.00 | 0.00 | 82 | 1012.7 |
| 20260504014844 | 17 | 21 | 0.0 | 0.0 | 0.00 | 0.00 | 0.00 | 82 | 1012.7 |
| 20260504014334 | 17 | 21 | 0.0 | 0.0 | 0.00 | 0.00 | 0.00 | 82 | 1012.7 |
| 20260504013827 | 17 | 21 | 0.0 | 0.0 | 0.00 | 0.00 | 0.00 | 82 | 1012.8 |
| 20260504013338 | 17 | 21 | 0.0 | 0.0 | 0.00 | 0.00 | 0.00 | 82 | 1012.8 |
| 20260504012833 | 17 | 21 | 0.0 | 0.0 | 0.00 | 0.00 | 0.00 | 82 | 1012.8 |
| 20260504012326 | 17 | 21 | 0.0 | 0.0 | 0.00 | 0.00 | 0.00 | 82 | 1012.8 |
| 20260504011837 | 17 | 21 | 0.0 | 0.0 | 0.00 | 0.00 | 0.00 | 82 | 1012.7 |
| 20260504011332 | 17 | 21 | 0.0 | 0.0 | 0.00 | 0.00 | 0.00 | 82 | 1012.6 |
| 20260504010842 | 17 | 21 | 0.0 | 0.0 | 0.00 | 0.00 | 0.00 | 82 | 1012.7 |
| 20260504010333 | 17 | 21 | 0.0 | 0.0 | 0.00 | 0.00 | 0.00 | 82 | 1012.6 |
| 20260504005823 | 17 | 21 | 0.0 | 0.0 | 0.00 | 0.00 | 0.00 | 82 | 1012.6 |
| 20260504005333 | 17 | 21 | 0.0 | 0.0 | 0.00 | 0.00 | 0.00 | 82 | 1012.6 |
| 20260504004830 | 17 | 21 | 0.0 | 0.0 | 0.00 | 0.00 | 0.00 | 82 | 1012.6 |
| 20260504004324 | 17 | 21 | 0.0 | 0.0 | 0.00 | 0.00 | 0.00 | 82 | 1012.6 |
| 20260504003837 | 17 | 21 | 0.0 | 0.0 | 0.00 | 0.00 | 0.00 | 82 | 1012.6 |
| 20260504003328 | 17 | 21 | 0.0 | 0.0 | 0.00 | 0.00 | 0.00 | 82 | 1012.6 |
| 20260504002819 | 17 | 21 | 0.0 | 0.0 | 0.00 | 0.00 | 0.00 | 82 | 1012.6 |
| 20260504002331 | 17 | 21 | 0.0 | 0.0 | 0.00 | 0.00 | 0.00 | 82 | 1012.6 |
| 20260504001824 | 17 | 21 | 0.0 | 0.0 | 0.00 | 0.00 | 0.00 | 82 | 1012.6 |
| 20260504001322 | 17 | 21 | 0.0 | 0.0 | 0.00 | 0.00 | 0.00 | 82 | 1012.6 |
| 20260504000833 | 17 | 21 | 0.0 | 0.0 | 0.00 | 0.00 | 0.00 | 82 | 1012.8 |
| 20260504000326 | 17 | 21 | 0.0 | 0.0 | 0.00 | 0.00 | 0.00 | 82 | 1012.9 |
| 20260503235817 | 17 | 21 | 0.0 | 0.0 | 0.00 | 0.00 | 0.00 | 82 | 1012.9 |
| 20260503235331 | 17 | 21 | 0.0 | 0.0 | 0.00 | 0.00 | 0.00 | 82 | 1012.9 |
| 20260503234824 | 17 | 21 | 0.0 | 0.0 | 0.00 | 0.00 | 0.00 | 82 | 1013.0 |
| 20260503234334 | 17 | 21 | 0.0 | 0.0 | 0.00 | 0.00 | 0.00 | 82 | 1013.0 |
| 20260503233825 | 17 | 21 | 0.0 | 0.0 | 0.00 | 0.00 | 0.00 | 82 | 1013.1 |
| 20260503232834 | 17 | 21 | 0.0 | 0.0 | 0.00 | 0.00 | 0.00 | 82 | 1013.2 |
| 20260503232327 | 17 | 21 | 0.0 | 0.0 | 0.00 | 0.00 | 0.00 | 82 | 1013.2 |
| 20260503231820 | 17 | 21 | 0.0 | 0.0 | 0.00 | 0.00 | 0.00 | 82 | 1013.2 |
| 20260503231330 | 17 | 21 | 0.0 | 0.0 | 0.00 | 0.00 | 0.00 | 82 | 1013.1 |
| 20260503230828 | 17 | 21 | 0.0 | 0.0 | 0.00 | 0.00 | 0.00 | 82 | 1013.3 |
| 20260503230321 | 17 | 21 | 0.0 | 0.0 | 0.00 | 0.00 | 0.00 | 82 | 1013.3 |
| 20260503225832 | 17 | 21 | 0.0 | 0.0 | 0.00 | 0.00 | 0.00 | 83 | 1013.4 |
| 20260503225326 | 17 | 21 | 0.0 | 0.0 | 0.00 | 0.00 | 0.00 | 82 | 1013.4 |
| 20260503224836 | 17 | 21 | 0.0 | 0.0 | 0.00 | 0.00 | 0.00 | 82 | 1013.4 |
| 20260503224327 | 17 | 21 | 0.0 | 0.0 | 0.00 | 0.00 | 0.00 | 82 | 1013.5 |
| 20260503223821 | 17 | 21 | 0.0 | 0.0 | 0.00 | 0.00 | 0.00 | 82 | 1013.6 |
| 20260503223330 | 17 | 21 | 0.0 | 0.0 | 0.00 | 0.00 | 0.00 | 82 | 1013.7 |
| 20260503222827 | 16 | 21 | 0.0 | 0.0 | 0.00 | 0.00 | 0.00 | 82 | 1013.6 |
| 20260503222320 | 16 | 21 | 0.0 | 0.0 | 0.00 | 0.00 | 0.00 | 82 | 1013.6 |
| 20260503221831 | 16 | 21 | 0.0 | 0.0 | 0.00 | 0.00 | 0.00 | 82 | 1013.6 |
| 20260503221328 | 16 | 21 | 0.0 | 0.0 | 0.00 | 0.00 | 0.00 | 82 | 1013.5 |
| 20260503220819 | 16 | 21 | 0.0 | 0.0 | 0.00 | 0.00 | 0.00 | 83 | 1013.5 |
| 20260503220324 | 16 | 21 | 0.0 | 0.0 | 0.00 | 0.00 | 0.00 | 83 | 1013.6 |
| 20260503215834 | 16 | 21 | 0.0 | 0.0 | 0.00 | 0.00 | 0.00 | 83 | 1013.7 |
| 20260503215324 | 16 | 21 | 0.0 | 0.0 | 0.00 | 0.00 | 0.00 | 83 | 1013.8 |
| 20260503214835 | 16 | 21 | 0.0 | 0.0 | 0.00 | 0.00 | 0.00 | 83 | 1013.8 |
| 20260503214328 | 16 | 21 | 0.0 | 0.0 | 0.00 | 0.00 | 0.00 | 83 | 1013.8 |
| 20260503213822 | 16 | 21 | 0.0 | 0.0 | 0.00 | 0.00 | 0.00 | 83 | 1013.8 |
| 20260503213333 | 16 | 21 | 0.0 | 0.0 | 0.00 | 0.00 | 0.00 | 83 | 1013.8 |
| 20260503212827 | 16 | 21 | 0.0 | 0.0 | 0.00 | 0.00 | 0.00 | 83 | 1013.8 |
| 20260503212341 | 16 | 21 | 0.0 | 0.0 | 0.00 | 0.00 | 0.00 | 83 | 1013.8 |
| 20260503211831 | 16 | 21 | 0.0 | 0.0 | 0.00 | 0.00 | 0.00 | 83 | 1013.8 |
| 20260503211328 | 16 | 21 | 0.0 | 0.0 | 0.00 | 0.00 | 0.00 | 83 | 1013.8 |
| 20260503210838 | 16 | 21 | 0.0 | 0.0 | 0.00 | 0.00 | 0.00 | 83 | 1013.8 |
| 20260503210329 | 16 | 21 | 0.0 | 0.0 | 0.00 | 0.00 | 0.00 | 83 | 1013.8 |
| 20260503205818 | 16 | 21 | 0.0 | 0.0 | 0.00 | 0.00 | 0.00 | 83 | 1013.7 |
| 20260503205332 | 16 | 21 | 0.0 | 0.0 | 0.00 | 0.00 | 0.00 | 83 | 1013.7 |
| 20260503204829 | 16 | 21 | 0.0 | 0.0 | 0.00 | 0.00 | 0.00 | 83 | 1013.6 |
| 20260503204339 | 16 | 21 | 0.0 | 0.0 | 0.00 | 0.00 | 0.00 | 83 | 1013.5 |
| 20260503203830 | 16 | 21 | 0.0 | 0.0 | 0.00 | 0.00 | 0.00 | 83 | 1013.4 |
| 20260503203323 | 16 | 21 | 0.0 | 0.0 | 0.00 | 0.00 | 0.00 | 83 | 1013.3 |
| 20260503202834 | 16 | 21 | 0.0 | 0.0 | 0.00 | 0.00 | 0.00 | 82 | 1013.3 |
| 20260503202327 | 16 | 21 | 0.0 | 0.0 | 0.00 | 0.00 | 0.00 | 82 | 1013.2 |
| 20260503201818 | 16 | 21 | 0.0 | 0.0 | 0.00 | 0.00 | 0.00 | 82 | 1013.2 |
| 20260503201328 | 17 | 21 | 0.0 | 0.0 | 0.00 | 0.00 | 0.00 | 82 | 1013.1 |
| 20260503200823 | 17 | 21 | 0.0 | 0.0 | 0.00 | 0.00 | 0.00 | 82 | 1013.0 |
| 20260503200333 | 17 | 21 | 0.0 | 0.0 | 0.00 | 0.00 | 0.00 | 81 | 1013.0 |
| 20260503195826 | 17 | 21 | 0.0 | 0.0 | 0.00 | 0.00 | 0.00 | 81 | 1012.9 |
| 20260503195319 | 17 | 21 | 0.0 | 0.0 | 0.00 | 0.00 | 0.00 | 81 | 1012.8 |
| 20260503194833 | 17 | 21 | 0.0 | 0.0 | 0.00 | 0.00 | 0.00 | 81 | 1012.7 |
| 20260503194327 | 17 | 21 | 0.0 | 0.0 | 0.00 | 0.00 | 0.00 | 81 | 1012.7 |
| 20260503193837 | 17 | 21 | 0.0 | 4.8 | 0.00 | 0.00 | 0.00 | 81 | 1012.7 |
| 20260503193328 | 17 | 21 | 0.0 | 4.8 | 0.00 | 0.00 | 0.00 | 81 | 1012.6 |
| 20260503192822 | 17 | 21 | 0.0 | 3.2 | 0.00 | 0.00 | 0.00 | 81 | 1012.5 |
| 20260503192319 | 17 | 21 | 0.0 | 4.8 | 0.00 | 0.00 | 0.00 | 81 | 1012.5 |
| 20260503191829 | 17 | 21 | 0.0 | 4.8 | 0.00 | 0.00 | 0.00 | 80 | 1012.4 |
| 20260503191320 | 17 | 21 | 0.0 | 6.4 | 0.00 | 0.00 | 0.00 | 80 | 1012.4 |
| 20260503190830 | 17 | 21 | 0.0 | 6.4 | 0.00 | 0.00 | 0.00 | 80 | 1012.3 |
| 20260503190327 | 17 | 21 | 0.0 | 3.2 | 0.00 | 0.00 | 0.00 | 80 | 1012.4 |
| 20260503185838 | 17 | 21 | 0.0 | 4.8 | 0.00 | 0.10 | 0.00 | 80 | 1012.3 |
| 20260503185328 | 18 | 21 | 3.2 | 4.8 | 0.00 | 0.10 | 0.00 | 80 | 1012.3 |
| 20260503184823 | 18 | 21 | 1.6 | 4.8 | 0.00 | 0.10 | 0.00 | 80 | 1012.4 |
| 20260503184333 | 18 | 21 | 0.0 | 4.8 | 0.00 | 0.10 | 0.00 | 80 | 1012.4 |
| 20260503183824 | 18 | 21 | 0.0 | 6.4 | 0.00 | 0.10 | 0.00 | 80 | 1012.4 |
| 20260503183334 | 18 | 21 | 1.6 | 6.4 | 0.00 | 0.10 | 0.00 | 80 | 1012.3 |
| 20260503182825 | 18 | 21 | 0.0 | 4.8 | 0.00 | 0.10 | 0.00 | 79 | 1012.3 |
| 20260503182335 | 18 | 21 | 1.6 | 4.8 | 0.00 | 0.10 | 0.00 | 79 | 1012.2 |
| 20260503181829 | 18 | 21 | 0.0 | 6.4 | 0.00 | 0.10 | 0.00 | 79 | 1012.3 |
| 20260503181320 | 18 | 21 | 0.0 | 3.2 | 0.00 | 0.10 | 0.00 | 79 | 1012.2 |
| 20260503180834 | 18 | 21 | 0.0 | 3.2 | 0.00 | 0.10 | 0.00 | 79 | 1012.1 |
| 20260503180325 | 18 | 21 | 0.0 | 6.4 | 0.00 | 0.10 | 0.00 | 79 | 1012.1 |
| 20260503175815 | 18 | 21 | 3.2 | 6.4 | 0.00 | 0.10 | 0.00 | 78 | 1012.0 |
| 20260503175329 | 18 | 21 | 1.6 | 6.4 | 0.00 | 0.10 | 0.00 | 78 | 1012.0 |
| 20260503174822 | 18 | 21 | 0.0 | 4.8 | 0.00 | 0.10 | 0.00 | 78 | 1012.1 |
| 20260503174332 | 18 | 21 | 0.0 | 3.2 | 0.00 | 0.10 | 0.00 | 78 | 1012.1 |
| 20260503173826 | 18 | 21 | 0.0 | 8.0 | 0.00 | 0.10 | 0.00 | 78 | 1012.1 |
| 20260503173316 | 18 | 21 | 3.2 | 8.0 | 0.00 | 0.10 | 0.00 | 77 | 1012.2 |
| 20260503172834 | 18 | 21 | 3.2 | 6.4 | 0.00 | 0.10 | 0.00 | 77 | 1012.1 |
| 20260503172324 | 19 | 21 | 1.6 | 8.0 | 0.00 | 0.10 | 0.00 | 77 | 1012.0 |
| 20260503171835 | 19 | 21 | 3.2 | 6.4 | 0.00 | 0.10 | 0.00 | 76 | 1012.0 |
| 20260503171324 | 19 | 21 | 1.6 | 6.4 | 0.00 | 0.10 | 0.00 | 76 | 1012.0 |
| 20260503170818 | 19 | 21 | 1.6 | 6.4 | 0.00 | 0.10 | 0.00 | 76 | 1012.0 |
| 20260503170331 | 19 | 21 | 1.6 | 6.4 | 0.00 | 0.10 | 0.00 | 76 | 1011.9 |
| 20260503150833 | 22 | 22 | 1.6 | 9.7 | 0.00 | 0.10 | 0.00 | 69 | 1012.4 |
| 20260503150324 | 22 | 22 | 3.2 | 9.7 | 0.00 | 0.10 | 0.00 | 67 | 1012.5 |
| 20260503131338 | 21 | 40 | 0.0 | 9.7 | 0.00 | 0.10 | 0.00 | 70 | 1013.1 |
| 20260503130829 | 21 | 40 | 4.8 | 11.3 | 0.00 | 0.10 | 0.00 | 71 | 1013.2 |
| 20260503130325 | 21 | 40 | 1.6 | 8.0 | 0.00 | 0.10 | 0.00 | 70 | 1013.3 |
| 20260503110827 | 21 | 71 | 0.0 | 12.9 | 0.00 | 0.10 | 0.00 | 73 | 1014.3 |
| 20260503110320 | 21 | 71 | 6.4 | 12.9 | 0.00 | 0.10 | 0.00 | 72 | 1014.3 |